contact:dominique.lefevre@mio.osupytheas.fr, maurice.libes@osupytheas.fr, didier.mallarino@osupytheas.fr
Project:EMSO http://www.emso-fr.org/EMSO-France
Depth: 2436.0 m
Title:EMSO Ligure Ouest : Data MII capteur MICROCAT
DateTime_Computer,Latitude,Longitude,Temperature,Conductivity,Pressure,DateTime_Instrument
DateTime_Computer,Latitude,Longitude,degC,S m-1,dbar,DateTime_Instrument
2023-08-05T00:02:45Z,42.805,6.029,13.3024,4.60085,2470.717,2023-8-05T02:05:03Z
2023-08-05T00:05:48Z,42.805,6.029,13.3026,4.60087,2470.74,2023-8-05T02:08:06Z
2023-08-05T00:08:51Z,42.805,6.029,13.3021,4.60084,2470.74,2023-8-05T02:11:09Z
2023-08-05T00:11:54Z,42.805,6.029,13.3029,4.60088,2470.717,2023-8-05T02:14:13Z
2023-08-05T00:14:57Z,42.805,6.029,13.3026,4.60086,2470.74,2023-8-05T02:17:16Z
2023-08-05T00:18:00Z,42.805,6.029,13.3026,4.60085,2470.707,2023-8-05T02:20:19Z
2023-08-05T00:21:03Z,42.805,6.029,13.3026,4.60085,2470.74,2023-8-05T02:23:22Z
2023-08-05T00:24:06Z,42.805,6.029,13.3025,4.60085,2470.73,2023-8-05T02:26:25Z
2023-08-05T00:27:09Z,42.805,6.029,13.3026,4.60087,2470.717,2023-8-05T02:29:28Z
2023-08-05T00:30:13Z,42.805,6.029,13.3028,4.60086,2470.73,2023-8-05T02:32:31Z
2023-08-05T00:33:16Z,42.805,6.029,13.3029,4.60086,2470.693,2023-8-05T02:35:34Z
2023-08-05T00:36:19Z,42.805,6.029,13.3028,4.60088,2470.73,2023-8-05T02:38:37Z
2023-08-05T00:39:22Z,42.805,6.029,13.3026,4.60089,2470.693,2023-8-05T02:41:40Z
2023-08-05T00:42:25Z,42.805,6.029,13.3028,4.60100,2470.717,2023-8-05T02:44:43Z
2023-08-05T00:45:28Z,42.805,6.029,13.3027,4.60087,2470.73,2023-8-05T02:47:46Z
2023-08-05T00:48:31Z,42.805,6.029,13.3029,4.60088,2470.67,2023-8-05T02:50:49Z
2023-08-05T00:51:34Z,42.805,6.029,13.3026,4.60087,2470.67,2023-8-05T02:53:53Z
2023-08-05T00:54:37Z,42.805,6.029,13.3025,4.60087,2470.717,2023-8-05T02:56:56Z
2023-08-05T00:57:40Z,42.805,6.029,13.3030,4.60087,2470.67,2023-8-05T02:59:59Z
2023-08-05T01:00:43Z,42.805,6.029,13.3029,4.60087,2470.67,2023-8-05T03:03:02Z
2023-08-05T01:03:46Z,42.805,6.029,13.3027,4.60088,2470.661,2023-8-05T03:06:05Z
2023-08-05T01:06:50Z,42.805,6.029,13.3026,4.60087,2470.661,2023-8-05T03:09:08Z
2023-08-05T01:09:53Z,42.805,6.029,13.3026,4.60087,2470.67,2023-8-05T03:12:11Z
2023-08-05T01:12:56Z,42.805,6.029,13.3028,4.60089,2470.67,2023-8-05T03:15:14Z
2023-08-05T01:15:59Z,42.805,6.029,13.3030,4.60089,2470.67,2023-8-05T03:18:17Z
2023-08-05T01:19:02Z,42.805,6.029,13.3028,4.60097,2470.67,2023-8-05T03:21:20Z
2023-08-05T01:22:05Z,42.805,6.029,13.3031,4.60090,2470.646,2023-8-05T03:24:23Z
2023-08-05T01:25:08Z,42.805,6.029,13.3029,4.60090,2470.646,2023-8-05T03:27:26Z
2023-08-05T01:28:11Z,42.805,6.029,13.3029,4.60094,2470.637,2023-8-05T03:30:30Z
2023-08-05T01:31:14Z,42.805,6.029,13.3024,4.60087,2470.646,2023-8-05T03:33:33Z
2023-08-05T01:34:17Z,42.805,6.029,13.3026,4.60088,2470.624,2023-8-05T03:36:36Z
2023-08-05T01:37:20Z,42.805,6.029,13.3027,4.60088,2470.624,2023-8-05T03:39:39Z
2023-08-05T01:40:23Z,42.805,6.029,13.3024,4.60086,2470.6,2023-8-05T03:42:42Z
2023-08-05T01:43:26Z,42.805,6.029,13.3026,4.60086,2470.646,2023-8-05T03:45:45Z
2023-08-05T01:46:30Z,42.805,6.029,13.3029,4.60092,2470.646,2023-8-05T03:48:48Z
2023-08-05T01:49:33Z,42.805,6.029,13.3024,4.60085,2470.646,2023-8-05T03:51:51Z
2023-08-05T01:52:36Z,42.805,6.029,13.3024,4.60086,2470.637,2023-8-05T03:54:54Z
2023-08-05T01:55:39Z,42.805,6.029,13.3032,4.60090,2470.6,2023-8-05T03:57:57Z
2023-08-05T01:58:42Z,42.805,6.029,13.3025,4.60087,2470.624,2023-8-05T04:01:00Z
2023-08-05T02:01:45Z,42.805,6.029,13.3024,4.60089,2470.6,2023-8-05T04:04:03Z
2023-08-05T02:04:48Z,42.805,6.029,13.3026,4.60094,2470.624,2023-8-05T04:07:06Z
2023-08-05T02:07:51Z,42.805,6.029,13.3023,4.60089,2470.6,2023-8-05T04:10:10Z
2023-08-05T02:10:54Z,42.805,6.029,13.3029,4.60087,2470.6,2023-8-05T04:13:13Z
2023-08-05T02:13:57Z,42.805,6.029,13.3025,4.60089,2470.637,2023-8-05T04:16:16Z
2023-08-05T02:17:00Z,42.805,6.029,13.3026,4.60090,2470.6,2023-8-05T04:19:19Z
2023-08-05T02:20:03Z,42.805,6.029,13.3024,4.60085,2470.624,2023-8-05T04:22:22Z
2023-08-05T02:23:07Z,42.805,6.029,13.3026,4.60086,2470.6,2023-8-05T04:25:25Z
2023-08-05T02:26:10Z,42.805,6.029,13.3026,4.60086,2470.614,2023-8-05T04:28:28Z
2023-08-05T02:29:13Z,42.805,6.029,13.3029,4.60088,2470.6,2023-8-05T04:31:31Z
2023-08-05T02:32:16Z,42.805,6.029,13.3028,4.60088,2470.591,2023-8-05T04:34:34Z
2023-08-05T02:35:19Z,42.805,6.029,13.3028,4.60086,2470.6,2023-8-05T04:37:37Z
2023-08-05T02:38:22Z,42.805,6.029,13.3028,4.60087,2470.577,2023-8-05T04:40:40Z
2023-08-05T02:41:25Z,42.805,6.029,13.3024,4.60088,2470.6,2023-8-05T04:43:43Z
2023-08-05T02:44:28Z,42.805,6.029,13.3027,4.60090,2470.577,2023-8-05T04:46:47Z
2023-08-05T02:47:31Z,42.805,6.029,13.3026,4.60093,2470.577,2023-8-05T04:49:50Z
2023-08-05T02:50:34Z,42.805,6.029,13.3027,4.60086,2470.567,2023-8-05T04:52:53Z
2023-08-05T02:53:37Z,42.805,6.029,13.3030,4.60087,2470.6,2023-8-05T04:55:56Z
2023-08-05T02:56:40Z,42.805,6.029,13.3026,4.60087,2470.614,2023-8-05T04:58:59Z
2023-08-05T02:59:43Z,42.805,6.029,13.3024,4.60087,2470.53,2023-8-05T05:02:02Z
2023-08-05T03:02:47Z,42.805,6.029,13.3026,4.60088,2470.577,2023-8-05T05:05:05Z
2023-08-05T03:05:50Z,42.805,6.029,13.3026,4.60087,2470.577,2023-8-05T05:08:08Z
2023-08-05T03:08:53Z,42.805,6.029,13.3030,4.60087,2470.591,2023-8-05T05:11:11Z
2023-08-05T03:11:56Z,42.805,6.029,13.3020,4.60097,2470.553,2023-8-05T05:14:14Z
2023-08-05T03:14:59Z,42.805,6.029,13.3027,4.60094,2470.553,2023-8-05T05:17:17Z
2023-08-05T03:18:02Z,42.805,6.029,13.3025,4.60096,2470.53,2023-8-05T05:20:20Z
2023-08-05T03:21:05Z,42.805,6.029,13.3022,4.60090,2470.553,2023-8-05T05:23:23Z
2023-08-05T03:24:08Z,42.805,6.029,13.3029,4.60088,2470.544,2023-8-05T05:26:27Z
2023-08-05T03:27:11Z,42.805,6.029,13.3026,4.60099,2470.539,2023-8-05T05:29:30Z
2023-08-05T03:30:14Z,42.805,6.029,13.3023,4.60104,2470.567,2023-8-05T05:32:33Z
2023-08-05T03:33:17Z,42.805,6.029,13.3025,4.60095,2470.53,2023-8-05T05:35:36Z
2023-08-05T03:36:20Z,42.805,6.029,13.3029,4.60101,2470.507,2023-8-05T05:38:39Z
2023-08-05T03:39:23Z,42.805,6.029,13.3030,4.60099,2470.53,2023-8-05T05:41:42Z
2023-08-05T03:42:27Z,42.805,6.029,13.3026,4.60094,2470.507,2023-8-05T05:44:45Z
2023-08-05T03:45:30Z,42.805,6.029,13.3024,4.60092,2470.553,2023-8-05T05:47:48Z
2023-08-05T03:48:33Z,42.805,6.029,13.3028,4.60087,2470.567,2023-8-05T05:50:51Z
2023-08-05T03:51:36Z,42.805,6.029,13.3026,4.60087,2470.53,2023-8-05T05:53:54Z
2023-08-05T03:54:39Z,42.805,6.029,13.3027,4.60089,2470.507,2023-8-05T05:56:57Z
2023-08-05T03:57:42Z,42.805,6.029,13.3024,4.60086,2470.553,2023-8-05T06:00:00Z
2023-08-05T04:00:45Z,42.805,6.029,13.3029,4.60087,2470.507,2023-8-05T06:03:03Z
2023-08-05T04:03:48Z,42.805,6.029,13.3029,4.60089,2470.507,2023-8-05T06:06:07Z
2023-08-05T04:06:51Z,42.805,6.029,13.3026,4.60089,2470.553,2023-8-05T06:09:10Z
2023-08-05T04:09:54Z,42.805,6.029,13.3026,4.60091,2470.544,2023-8-05T06:12:13Z
2023-08-05T04:12:57Z,42.805,6.029,13.3026,4.60095,2470.507,2023-8-05T06:15:16Z
2023-08-05T04:16:00Z,42.805,6.029,13.3026,4.60089,2470.483,2023-8-05T06:18:19Z
2023-08-05T04:19:03Z,42.805,6.029,13.3028,4.60094,2470.52,2023-8-05T06:21:22Z
2023-08-05T04:22:07Z,42.805,6.029,13.3025,4.60087,2470.53,2023-8-05T06:24:25Z
2023-08-05T04:25:10Z,42.805,6.029,13.3029,4.60089,2470.52,2023-8-05T06:27:28Z
2023-08-05T04:28:13Z,42.805,6.029,13.3029,4.60089,2470.544,2023-8-05T06:30:31Z
2023-08-05T04:31:16Z,42.805,6.029,13.3031,4.60094,2470.483,2023-8-05T06:33:34Z
2023-08-05T04:34:19Z,42.805,6.029,13.3026,4.60101,2470.507,2023-8-05T06:36:37Z
2023-08-05T04:37:22Z,42.805,6.029,13.3025,4.60099,2470.544,2023-8-05T06:39:40Z
2023-08-05T04:40:25Z,42.805,6.029,13.3029,4.60108,2470.507,2023-8-05T06:42:43Z
2023-08-05T04:43:28Z,42.805,6.029,13.3030,4.60090,2470.52,2023-8-05T06:45:47Z
2023-08-05T04:46:31Z,42.805,6.029,13.3026,4.60100,2470.544,2023-8-05T06:48:50Z
2023-08-05T04:49:34Z,42.805,6.029,13.3028,4.60102,2470.53,2023-8-05T06:51:53Z
2023-08-05T04:52:37Z,42.805,6.029,13.3026,4.60104,2470.507,2023-8-05T06:54:56Z
2023-08-05T04:55:40Z,42.805,6.029,13.3031,4.60095,2470.507,2023-8-05T06:57:59Z
2023-08-05T04:58:44Z,42.805,6.029,13.3028,4.60092,2470.53,2023-8-05T07:01:02Z
2023-08-05T05:01:47Z,42.805,6.029,13.3027,4.60091,2470.507,2023-8-05T07:04:05Z
2023-08-05T05:04:50Z,42.805,6.029,13.3028,4.60102,2470.52,2023-8-05T07:07:08Z
2023-08-05T05:07:53Z,42.805,6.029,13.3028,4.60097,2470.497,2023-8-05T07:10:11Z
2023-08-05T05:10:56Z,42.805,6.029,13.3028,4.60117,2470.544,2023-8-05T07:13:14Z
2023-08-05T05:13:59Z,42.805,6.029,13.3031,4.60103,2470.507,2023-8-05T07:16:17Z
2023-08-05T05:17:02Z,42.805,6.029,13.3029,4.60103,2470.52,2023-8-05T07:19:20Z
2023-08-05T05:20:05Z,42.805,6.029,13.3039,4.60109,2470.53,2023-8-05T07:22:23Z
2023-08-05T05:23:08Z,42.805,6.029,13.3045,4.60109,2470.507,2023-8-05T07:25:27Z
2023-08-05T05:26:11Z,42.805,6.029,13.3026,4.60102,2470.544,2023-8-05T07:28:30Z
2023-08-05T05:29:14Z,42.805,6.029,13.3031,4.60101,2470.53,2023-8-05T07:31:33Z
2023-08-05T05:32:17Z,42.805,6.029,13.3038,4.60095,2470.53,2023-8-05T07:34:36Z
2023-08-05T05:35:20Z,42.805,6.029,13.3031,4.60092,2470.553,2023-8-05T07:37:39Z
2023-08-05T05:38:24Z,42.805,6.029,13.3057,4.60129,2470.544,2023-8-05T07:40:42Z
2023-08-05T05:41:27Z,42.805,6.029,13.3056,4.60097,2470.53,2023-8-05T07:43:45Z
2023-08-05T05:44:30Z,42.805,6.029,13.3061,4.60137,2470.544,2023-8-05T07:46:48Z
2023-08-05T05:47:33Z,42.805,6.029,13.3061,4.60153,2470.507,2023-8-05T07:49:51Z
2023-08-05T05:50:36Z,42.805,6.029,13.3057,4.60148,2470.53,2023-8-05T07:52:54Z
2023-08-05T05:53:39Z,42.805,6.029,13.3054,4.60142,2470.544,2023-8-05T07:55:57Z
2023-08-05T05:56:42Z,42.805,6.029,13.3070,4.60107,2470.507,2023-8-05T07:59:00Z
2023-08-05T05:59:45Z,42.805,6.029,13.3067,4.60106,2470.544,2023-8-05T08:02:04Z
2023-08-05T06:02:48Z,42.805,6.029,13.3063,4.60103,2470.52,2023-8-05T08:05:07Z
2023-08-05T06:05:51Z,42.805,6.029,13.3064,4.60099,2470.553,2023-8-05T08:08:10Z
2023-08-05T06:08:54Z,42.805,6.029,13.3087,4.60110,2470.544,2023-8-05T08:11:13Z
2023-08-05T06:11:57Z,42.805,6.029,13.3086,4.60114,2470.53,2023-8-05T08:14:16Z
2023-08-05T06:15:00Z,42.805,6.029,13.3076,4.60104,2470.553,2023-8-05T08:17:19Z
2023-08-05T06:18:04Z,42.805,6.029,13.3050,4.60097,2470.567,2023-8-05T08:20:22Z
2023-08-05T06:21:07Z,42.805,6.029,13.3170,4.60097,2470.553,2023-8-05T08:23:25Z
2023-08-05T06:24:10Z,42.805,6.029,13.3071,4.60099,2470.553,2023-8-05T08:26:28Z
2023-08-05T06:27:13Z,42.805,6.029,13.3043,4.60102,2470.567,2023-8-05T08:29:31Z
2023-08-05T06:30:16Z,42.805,6.029,13.3147,4.60092,2470.567,2023-8-05T08:32:34Z
2023-08-05T06:33:19Z,42.805,6.029,13.3041,4.60104,2470.567,2023-8-05T08:35:37Z
2023-08-05T06:36:22Z,42.805,6.029,13.3038,4.60099,2470.567,2023-8-05T08:38:40Z
2023-08-05T06:39:25Z,42.805,6.029,13.3039,4.60097,2470.567,2023-8-05T08:41:43Z
2023-08-05T06:42:28Z,42.805,6.029,13.3031,4.60097,2470.567,2023-8-05T08:44:46Z
2023-08-05T06:45:31Z,42.805,6.029,13.3030,4.60099,2470.553,2023-8-05T08:47:49Z
2023-08-05T06:48:34Z,42.805,6.029,13.3026,4.60097,2470.567,2023-8-05T08:50:52Z
2023-08-05T06:51:37Z,42.805,6.029,13.3030,4.60106,2470.577,2023-8-05T08:53:56Z
2023-08-05T06:54:40Z,42.805,6.029,13.3028,4.60099,2470.591,2023-8-05T08:56:59Z
2023-08-05T06:57:43Z,42.805,6.029,13.3029,4.60099,2470.567,2023-8-05T09:00:02Z
2023-08-05T07:00:46Z,42.805,6.029,13.3149,4.60099,2470.6,2023-8-05T09:03:05Z
2023-08-05T07:03:49Z,42.805,6.029,13.3031,4.60105,2470.577,2023-8-05T09:06:08Z
2023-08-05T07:06:52Z,42.805,6.029,13.3032,4.60107,2470.591,2023-8-05T09:09:11Z
2023-08-05T07:09:56Z,42.805,6.029,13.3031,4.60099,2470.577,2023-8-05T09:12:14Z
2023-08-05T07:12:59Z,42.805,6.029,13.3036,4.60093,2470.591,2023-8-05T09:15:17Z
2023-08-05T07:16:02Z,42.805,6.029,13.3034,4.60093,2470.6,2023-8-05T09:18:20Z
2023-08-05T07:19:05Z,42.805,6.029,13.3032,4.60093,2470.6,2023-8-05T09:21:23Z
2023-08-05T07:22:08Z,42.805,6.029,13.3034,4.60095,2470.614,2023-8-05T09:24:26Z
2023-08-05T07:25:11Z,42.805,6.029,13.3029,4.60108,2470.637,2023-8-05T09:27:29Z
2023-08-05T07:28:14Z,42.805,6.029,13.3037,4.60099,2470.614,2023-8-05T09:30:32Z
2023-08-05T07:31:17Z,42.805,6.029,13.3042,4.60116,2470.637,2023-8-05T09:33:36Z
2023-08-05T07:34:20Z,42.805,6.029,13.3042,4.60096,2470.6,2023-8-05T09:36:39Z
2023-08-05T07:37:23Z,42.805,6.029,13.3046,4.60099,2470.637,2023-8-05T09:39:42Z
2023-08-05T07:40:26Z,42.805,6.029,13.3048,4.60109,2470.614,2023-8-05T09:42:45Z
2023-08-05T07:43:29Z,42.805,6.029,13.3046,4.60101,2470.6,2023-8-05T09:45:48Z
2023-08-05T07:46:32Z,42.805,6.029,13.3043,4.60097,2470.624,2023-8-05T09:48:51Z
2023-08-05T07:49:36Z,42.805,6.029,13.3032,4.60106,2470.6,2023-8-05T09:51:54Z
2023-08-05T07:52:39Z,42.805,6.029,13.3039,4.60105,2470.661,2023-8-05T09:54:57Z
2023-08-05T07:55:42Z,42.805,6.029,13.3044,4.60098,2470.646,2023-8-05T09:58:00Z
2023-08-05T07:58:45Z,42.805,6.029,13.3036,4.60103,2470.684,2023-8-05T10:01:03Z
2023-08-05T08:01:48Z,42.805,6.029,13.3030,4.60111,2470.661,2023-8-05T10:04:06Z
2023-08-05T08:04:51Z,42.805,6.029,13.3033,4.60103,2470.661,2023-8-05T10:07:09Z
2023-08-05T08:07:54Z,42.805,6.029,13.3034,4.60107,2470.646,2023-8-05T10:10:13Z
2023-08-05T08:10:57Z,42.805,6.029,13.3034,4.60104,2470.646,2023-8-05T10:13:16Z
2023-08-05T08:14:00Z,42.805,6.029,13.3035,4.60101,2470.661,2023-8-05T10:16:19Z
2023-08-05T08:17:03Z,42.805,6.029,13.3031,4.60103,2470.637,2023-8-05T10:19:22Z
2023-08-05T08:20:06Z,42.805,6.029,13.3039,4.60097,2470.624,2023-8-05T10:22:25Z
2023-08-05T08:23:09Z,42.805,6.029,13.3029,4.60099,2470.624,2023-8-05T10:25:28Z
2023-08-05T08:26:13Z,42.805,6.029,13.3034,4.60102,2470.6,2023-8-05T10:28:31Z
2023-08-05T08:29:16Z,42.805,6.029,13.3029,4.60144,2470.661,2023-8-05T10:31:34Z
2023-08-05T08:32:18Z,42.805,6.029,13.3029,4.60151,2470.646,2023-8-05T10:34:37Z
2023-08-05T08:35:22Z,42.805,6.029,13.3029,4.60104,2470.614,2023-8-05T10:37:40Z
2023-08-05T08:38:25Z,42.805,6.029,13.3031,4.60109,2470.661,2023-8-05T10:40:43Z
2023-08-05T08:41:28Z,42.805,6.029,13.3029,4.60115,2470.646,2023-8-05T10:43:46Z
2023-08-05T08:44:31Z,42.805,6.029,13.3029,4.60102,2470.637,2023-8-05T10:46:49Z
2023-08-05T08:47:34Z,42.805,6.029,13.3027,4.60098,2470.646,2023-8-05T10:49:52Z
2023-08-05T08:50:37Z,42.805,6.029,13.3031,4.60114,2470.707,2023-8-05T10:52:55Z
2023-08-05T08:53:40Z,42.805,6.029,13.3027,4.60107,2470.684,2023-8-05T10:55:58Z
2023-08-05T08:56:43Z,42.805,6.029,13.3030,4.60106,2470.646,2023-8-05T10:59:02Z
2023-08-05T08:59:46Z,42.805,6.029,13.3026,4.60098,2470.67,2023-8-05T11:02:05Z
2023-08-05T09:02:49Z,42.805,6.029,13.3027,4.60099,2470.661,2023-8-05T11:05:08Z
2023-08-05T09:05:52Z,42.805,6.029,13.3029,4.60175,2470.684,2023-8-05T11:08:11Z
2023-08-05T09:08:55Z,42.805,6.029,13.3024,4.60105,2470.67,2023-8-05T11:11:14Z
2023-08-05T09:11:58Z,42.805,6.029,13.3031,4.60108,2470.633,2023-8-05T11:14:17Z
2023-08-05T09:15:02Z,42.805,6.029,13.3026,4.60099,2470.67,2023-8-05T11:17:20Z
2023-08-05T09:18:05Z,42.805,6.029,13.3029,4.60099,2470.67,2023-8-05T11:20:23Z
2023-08-05T09:21:08Z,42.805,6.029,13.3028,4.60098,2470.67,2023-8-05T11:23:26Z
2023-08-05T09:24:11Z,42.805,6.029,13.3028,4.60096,2470.646,2023-8-05T11:26:29Z
2023-08-05T09:27:14Z,42.805,6.029,13.3027,4.60101,2470.684,2023-8-05T11:29:32Z
2023-08-05T09:30:17Z,42.805,6.029,13.3027,4.60095,2470.661,2023-8-05T11:32:35Z
2023-08-05T09:33:20Z,42.805,6.029,13.3030,4.60095,2470.67,2023-8-05T11:35:39Z
2023-08-05T09:36:23Z,42.805,6.029,13.3029,4.60097,2470.67,2023-8-05T11:38:42Z
2023-08-05T09:39:26Z,42.805,6.029,13.3036,4.60094,2470.67,2023-8-05T11:41:45Z
2023-08-05T09:42:29Z,42.805,6.029,13.3035,4.60096,2470.656,2023-8-05T11:44:48Z
2023-08-05T09:45:32Z,42.805,6.029,13.3035,4.60095,2470.684,2023-8-05T11:47:51Z
2023-08-05T09:48:35Z,42.805,6.029,13.3039,4.60095,2470.67,2023-8-05T11:50:54Z
2023-08-05T09:51:39Z,42.805,6.029,13.3032,4.60094,2470.637,2023-8-05T11:53:57Z
2023-08-05T09:54:42Z,42.805,6.029,13.3031,4.60097,2470.624,2023-8-05T11:57:00Z
2023-08-05T09:57:45Z,42.805,6.029,13.3039,4.60095,2470.624,2023-8-05T12:00:03Z
2023-08-05T10:00:48Z,42.805,6.029,13.3038,4.60097,2470.646,2023-8-05T12:03:06Z
2023-08-05T10:03:51Z,42.805,6.029,13.3036,4.60102,2470.624,2023-8-05T12:06:09Z
2023-08-05T10:06:54Z,42.805,6.029,13.3036,4.60101,2470.646,2023-8-05T12:09:12Z
2023-08-05T10:09:57Z,42.805,6.029,13.3034,4.60092,2470.646,2023-8-05T12:12:15Z
2023-08-05T10:13:00Z,42.805,6.029,13.3039,4.60095,2470.684,2023-8-05T12:15:19Z
2023-08-05T10:16:03Z,42.805,6.029,13.3040,4.60099,2470.661,2023-8-05T12:18:22Z
2023-08-05T10:19:06Z,42.805,6.029,13.3036,4.60098,2470.693,2023-8-05T12:21:25Z
2023-08-05T10:22:09Z,42.805,6.029,13.3036,4.60094,2470.693,2023-8-05T12:24:28Z
2023-08-05T10:25:12Z,42.805,6.029,13.3036,4.60093,2470.646,2023-8-05T12:27:31Z
2023-08-05T10:28:16Z,42.805,6.029,13.3039,4.60091,2470.661,2023-8-05T12:30:34Z
2023-08-05T10:31:17Z,42.805,6.029,13.3034,4.60094,2470.624,2023-8-05T12:33:36Z
2023-08-05T10:34:20Z,42.805,6.029,13.3041,4.60092,2470.661,2023-8-05T12:36:39Z
2023-08-05T10:37:23Z,42.805,6.029,13.3044,4.60092,2470.624,2023-8-05T12:39:42Z
2023-08-05T10:40:26Z,42.805,6.029,13.3051,4.60095,2470.684,2023-8-05T12:42:45Z
2023-08-05T10:43:29Z,42.805,6.029,13.3048,4.60096,2470.646,2023-8-05T12:45:48Z
2023-08-05T10:46:33Z,42.805,6.029,13.3037,4.60097,2470.661,2023-8-05T12:48:51Z
2023-08-05T10:49:36Z,42.805,6.029,13.3035,4.60105,2470.661,2023-8-05T12:51:54Z
2023-08-05T10:52:39Z,42.805,6.029,13.3029,4.60099,2470.661,2023-8-05T12:54:57Z
2023-08-05T10:55:42Z,42.805,6.029,13.3034,4.60092,2470.624,2023-8-05T12:58:00Z
2023-08-05T10:58:45Z,42.805,6.029,13.3032,4.60092,2470.637,2023-8-05T13:01:03Z
2023-08-05T11:01:48Z,42.805,6.029,13.3034,4.60089,2470.624,2023-8-05T13:04:06Z
2023-08-05T11:04:51Z,42.805,6.029,13.3034,4.60091,2470.637,2023-8-05T13:07:09Z
2023-08-05T11:07:54Z,42.805,6.029,13.3031,4.60090,2470.661,2023-8-05T13:10:13Z
2023-08-05T11:10:57Z,42.805,6.029,13.3030,4.60094,2470.684,2023-8-05T13:13:16Z
2023-08-05T11:14:00Z,42.805,6.029,13.3034,4.60091,2470.624,2023-8-05T13:16:19Z
2023-08-05T11:17:03Z,42.805,6.029,13.3031,4.60089,2470.646,2023-8-05T13:19:22Z
2023-08-05T11:20:06Z,42.805,6.029,13.3031,4.60088,2470.61,2023-8-05T13:22:25Z
2023-08-05T11:23:09Z,42.805,6.029,13.3030,4.60088,2470.646,2023-8-05T13:25:28Z
2023-08-05T11:26:13Z,42.805,6.029,13.3027,4.60087,2470.637,2023-8-05T13:28:31Z
2023-08-05T11:29:16Z,42.805,6.029,13.3026,4.60089,2470.6,2023-8-05T13:31:34Z
2023-08-05T11:32:19Z,42.805,6.029,13.3026,4.60089,2470.624,2023-8-05T13:34:37Z
2023-08-05T11:35:22Z,42.805,6.029,13.3031,4.60091,2470.661,2023-8-05T13:37:40Z
2023-08-05T11:38:25Z,42.805,6.029,13.3030,4.60089,2470.6,2023-8-05T13:40:43Z
2023-08-05T11:41:28Z,42.805,6.029,13.3030,4.60088,2470.637,2023-8-05T13:43:46Z
2023-08-05T11:44:31Z,42.805,6.029,13.3026,4.60089,2470.614,2023-8-05T13:46:50Z
2023-08-05T11:47:34Z,42.805,6.029,13.3030,4.60089,2470.614,2023-8-05T13:49:53Z
2023-08-05T11:50:37Z,42.805,6.029,13.3027,4.60089,2470.614,2023-8-05T13:52:56Z
2023-08-05T11:53:40Z,42.805,6.029,13.3025,4.60089,2470.614,2023-8-05T13:55:59Z
2023-08-05T11:56:43Z,42.805,6.029,13.3031,4.60091,2470.637,2023-8-05T13:59:02Z
2023-08-05T11:59:46Z,42.805,6.029,13.3030,4.60092,2470.6,2023-8-05T14:02:05Z
2023-08-05T12:02:50Z,42.805,6.029,13.3026,4.60094,2470.6,2023-8-05T14:05:08Z
2023-08-05T12:05:53Z,42.805,6.029,13.3030,4.60087,2470.577,2023-8-05T14:08:11Z
2023-08-05T12:08:56Z,42.805,6.029,13.3027,4.60087,2470.577,2023-8-05T14:11:14Z
2023-08-05T12:11:59Z,42.805,6.029,13.3026,4.60087,2470.577,2023-8-05T14:14:17Z
2023-08-05T12:15:02Z,42.805,6.029,13.3028,4.60092,2470.591,2023-8-05T14:17:20Z
2023-08-05T12:18:05Z,42.805,6.029,13.3030,4.60087,2470.614,2023-8-05T14:20:23Z
2023-08-05T12:21:08Z,42.805,6.029,13.3028,4.60086,2470.553,2023-8-05T14:23:27Z
2023-08-05T12:24:11Z,42.805,6.029,13.3029,4.60086,2470.6,2023-8-05T14:26:30Z
2023-08-05T12:27:14Z,42.805,6.029,13.3026,4.60087,2470.646,2023-8-05T14:29:33Z
2023-08-05T12:30:17Z,42.805,6.029,13.3029,4.60084,2470.577,2023-8-05T14:32:36Z
2023-08-05T12:33:20Z,42.805,6.029,13.3028,4.60086,2470.6,2023-8-05T14:35:39Z
2023-08-05T12:36:23Z,42.805,6.029,13.3028,4.60086,2470.614,2023-8-05T14:38:42Z
2023-08-05T12:39:27Z,42.805,6.029,13.3027,4.60087,2470.6,2023-8-05T14:41:45Z
2023-08-05T12:42:30Z,42.805,6.029,13.3031,4.60087,2470.591,2023-8-05T14:44:48Z
2023-08-05T12:45:33Z,42.805,6.029,13.3029,4.60087,2470.6,2023-8-05T14:47:51Z
2023-08-05T12:48:36Z,42.805,6.029,13.3026,4.60087,2470.577,2023-8-05T14:50:54Z
2023-08-05T12:51:39Z,42.805,6.029,13.3027,4.60086,2470.577,2023-8-05T14:53:57Z
2023-08-05T12:54:42Z,42.805,6.029,13.3027,4.60087,2470.6,2023-8-05T14:57:00Z
2023-08-05T12:57:45Z,42.805,6.029,13.3026,4.60086,2470.614,2023-8-05T15:00:04Z
2023-08-05T13:00:48Z,42.805,6.029,13.3026,4.60086,2470.544,2023-8-05T15:03:07Z
2023-08-05T13:03:51Z,42.805,6.029,13.3027,4.60086,2470.53,2023-8-05T15:06:10Z
2023-08-05T13:06:54Z,42.805,6.029,13.3027,4.60085,2470.553,2023-8-05T15:09:13Z
2023-08-05T13:09:57Z,42.805,6.029,13.3029,4.60085,2470.567,2023-8-05T15:12:16Z
2023-08-05T13:13:01Z,42.805,6.029,13.3028,4.60085,2470.577,2023-8-05T15:15:19Z
2023-08-05T13:16:04Z,42.805,6.029,13.3025,4.60087,2470.553,2023-8-05T15:18:22Z
2023-08-05T13:19:07Z,42.805,6.029,13.3027,4.60087,2470.567,2023-8-05T15:21:25Z
2023-08-05T13:22:10Z,42.805,6.029,13.3030,4.60087,2470.591,2023-8-05T15:24:28Z
2023-08-05T13:25:13Z,42.805,6.029,13.3029,4.60087,2470.53,2023-8-05T15:27:31Z
2023-08-05T13:28:16Z,42.805,6.029,13.3033,4.60089,2470.553,2023-8-05T15:30:34Z
2023-08-05T13:31:19Z,42.805,6.029,13.3028,4.60087,2470.567,2023-8-05T15:33:37Z
2023-08-05T13:34:22Z,42.805,6.029,13.3026,4.60086,2470.497,2023-8-05T15:36:41Z
2023-08-05T13:37:25Z,42.805,6.029,13.3027,4.60087,2470.53,2023-8-05T15:39:44Z
2023-08-05T13:40:28Z,42.805,6.029,13.3030,4.60086,2470.553,2023-8-05T15:42:47Z
2023-08-05T13:43:31Z,42.805,6.029,13.3026,4.60097,2470.567,2023-8-05T15:45:50Z
2023-08-05T13:46:34Z,42.805,6.029,13.3028,4.60087,2470.53,2023-8-05T15:48:53Z
2023-08-05T13:49:38Z,42.805,6.029,13.3030,4.60092,2470.553,2023-8-05T15:51:56Z
2023-08-05T13:52:41Z,42.805,6.029,13.3029,4.60085,2470.507,2023-8-05T15:54:59Z
2023-08-05T13:55:44Z,42.805,6.029,13.3028,4.60086,2470.544,2023-8-05T15:58:02Z
2023-08-05T13:58:47Z,42.805,6.029,13.3027,4.60087,2470.544,2023-8-05T16:01:05Z
2023-08-05T14:01:50Z,42.805,6.029,13.3029,4.60087,2470.507,2023-8-05T16:04:08Z
2023-08-05T14:04:53Z,42.805,6.029,13.3028,4.60087,2470.53,2023-8-05T16:07:11Z
2023-08-05T14:07:56Z,42.805,6.029,13.3029,4.60089,2470.567,2023-8-05T16:10:14Z
2023-08-05T14:10:59Z,42.805,6.029,13.3028,4.60088,2470.507,2023-8-05T16:13:18Z
2023-08-05T14:14:02Z,42.805,6.029,13.3028,4.60089,2470.544,2023-8-05T16:16:21Z
2023-08-05T14:17:05Z,42.805,6.029,13.3030,4.60092,2470.53,2023-8-05T16:19:24Z
2023-08-05T14:20:08Z,42.805,6.029,13.3029,4.60087,2470.507,2023-8-05T16:22:27Z
2023-08-05T14:23:11Z,42.805,6.029,13.3029,4.60087,2470.507,2023-8-05T16:25:30Z
2023-08-05T14:26:15Z,42.805,6.029,13.3029,4.60090,2470.567,2023-8-05T16:28:33Z
2023-08-05T14:29:18Z,42.805,6.029,13.3029,4.60087,2470.507,2023-8-05T16:31:36Z
2023-08-05T14:32:20Z,42.805,6.029,13.3025,4.60087,2470.507,2023-8-05T16:34:38Z
2023-08-05T14:35:23Z,42.805,6.029,13.3031,4.60090,2470.52,2023-8-05T16:37:41Z
2023-08-05T14:38:26Z,42.805,6.029,13.3028,4.60089,2470.507,2023-8-05T16:40:44Z
2023-08-05T14:41:29Z,42.805,6.029,13.3028,4.60087,2470.507,2023-8-05T16:43:47Z
2023-08-05T14:44:32Z,42.805,6.029,13.3030,4.60089,2470.507,2023-8-05T16:46:51Z
2023-08-05T14:47:35Z,42.805,6.029,13.3028,4.60087,2470.53,2023-8-05T16:49:54Z
2023-08-05T14:50:38Z,42.805,6.029,13.3026,4.60086,2470.507,2023-8-05T16:52:57Z
2023-08-05T14:53:41Z,42.805,6.029,13.3029,4.60086,2470.507,2023-8-05T16:56:00Z
2023-08-05T14:56:44Z,42.805,6.029,13.3029,4.60087,2470.507,2023-8-05T16:59:03Z
2023-08-05T14:59:47Z,42.805,6.029,13.3026,4.60086,2470.507,2023-8-05T17:02:06Z
2023-08-05T15:02:51Z,42.805,6.029,13.3026,4.60090,2470.507,2023-8-05T17:05:09Z
2023-08-05T15:05:54Z,42.805,6.029,13.3026,4.60085,2470.483,2023-8-05T17:08:12Z
2023-08-05T15:08:57Z,42.805,6.029,13.3026,4.60091,2470.497,2023-8-05T17:11:15Z
2023-08-05T15:12:00Z,42.805,6.029,13.3026,4.60086,2470.483,2023-8-05T17:14:18Z
2023-08-05T15:15:03Z,42.805,6.029,13.3027,4.60087,2470.52,2023-8-05T17:17:21Z